This is the latest recevied weather packets stored in our database for station/object SV9TNF-1. If no packets are shown the sender has not sent any weather packets the latest 10 day(s).
| Time | Temp. | Humidity | Pressure | Rain* | Wind** | Luminosity | Snow |
|---|---|---|---|---|---|---|---|
| 1777760160 | 12.78° C | 65% | 1003.4 hPa | 0 mm | 3.58 m/s, 165° | - | - |
| 1777759860 | 12.78° C | 63% | 1003.4 hPa | 0 mm | 2.24 m/s, 127° | - | - |
| 1777759560 | 12.78° C | 62% | 1003.4 hPa | 0 mm | 1.79 m/s, 159° | - | - |
| 1777759260 | 12.78° C | 61% | 1003.7 hPa | 0 mm | 4.02 m/s, 112° | - | - |
| 1777758960 | 12.78° C | 61% | 1003.7 hPa | 0 mm | 2.68 m/s, 151° | - | - |
| 1777758659 | 12.78° C | 62% | 1003.7 hPa | 0 mm | 4.92 m/s, 123° | - | - |
| 1777758359 | 12.78° C | 61% | 1003.7 hPa | 0 mm | 2.68 m/s, 130° | - | - |
| 1777758059 | 13.33° C | 63% | 1003.7 hPa | 0 mm | 1.79 m/s, 134° | - | - |
| 1777757759 | 12.78° C | 62% | 1003.7 hPa | 0 mm | 3.13 m/s, 143° | - | - |
| 1777757459 | 12.78° C | 62% | 1003.7 hPa | 0 mm | 4.02 m/s, 128° | - | - |
| 1777757159 | 12.78° C | 60% | 1003.7 hPa | 0 mm | 2.68 m/s, 179° | - | - |
| 1777756859 | 12.78° C | 60% | 1003.7 hPa | 0 mm | 1.34 m/s, 142° | - | - |
| 1777756559 | 12.78° C | 61% | 1003.7 hPa | 0 mm | 1.79 m/s, 106° | - | - |
| 1777756259 | 12.78° C | 61% | 1003.7 hPa | 0 mm | 1.79 m/s, 131° | - | - |
| 1777755959 | 12.78° C | 60% | 1003.7 hPa | 0 mm | 0.89 m/s, 137° | - | - |
| 1777755658 | 12.78° C | 61% | 1003.7 hPa | 0 mm | 1.79 m/s, 139° | - | - |
| 1777755358 | 12.78° C | 60% | 1004.1 hPa | 0 mm | 0 m/s | - | - |
| 1777755058 | 12.22° C | 58% | 1004.1 hPa | 0 mm | 0 m/s | - | - |
| 1777754758 | 12.22° C | 58% | 1004.1 hPa | 0 mm | 0.45 m/s, 134° | - | - |
| 1777754458 | 12.22° C | 59% | 1004.1 hPa | 0 mm | 1.79 m/s, 133° | - | - |
| 1777754158 | 12.78° C | 59% | 1004.1 hPa | 0 mm | 0.89 m/s, 138° | - | - |
| 1777753858 | 12.78° C | 57% | 1004.1 hPa | 0 mm | 0.89 m/s, 141° | - | - |
| 1777753558 | 12.78° C | 56% | 1004.1 hPa | 0 mm | 1.34 m/s, 132° | - | - |
| 1777753258 | 12.78° C | 58% | 1004.1 hPa | 0 mm | 1.79 m/s, 112° | - | - |
| 1777752958 | 12.78° C | 58% | 1004.1 hPa | 0 mm | 2.24 m/s, 131° | - | - |
* Rain latest hour (hover to see other rain measurements)
** Current wind speed in m/s (hover to see current wind gust speed)